Date String (YYYY-MM-DD hh:mm:ss) UTC,Instrument flags,Ambient pressure (hPa),Sample flow (lpm),Bypass flow (lpm),Sample temperature (°C),Ambient temperature (°C),ASC tube jacket temperature (°C),LED temperature (°C),Box temperature (°C),Sample RH (%),Span deviation,Mass concentration (μg/m³),Mass concentration (μg/m³),Mass concentration (μg/m³)
DateTimeUTC,F1_M11,P_M11,Q1_M11,Q2_M11,T1_M11,T2_M11,T3_M11,T4_M11,T5_M11,U1_M11,ZSPAN_M11,X0_M11,X2_M11,X1_M11
2022-12-16 20:00:00,,0823.6,5.00,0.00,21.6,20.1,00.0,30.5,23.1,04.0,0000.0,0002.94,0001.97,0001.66
2022-12-16 20:01:00,,0823.6,5.00,0.00,21.5,19.9,00.0,30.5,23.0,04.1,0000.0,0002.84,0001.95,0001.66
2022-12-16 20:02:00,,0823.7,5.00,0.00,21.5,19.8,00.0,30.5,23.0,04.0,0000.0,0002.83,0001.96,0001.67
2022-12-16 20:03:00,,0823.7,5.01,0.00,21.5,20.6,00.0,30.4,23.2,04.1,0000.0,0002.84,0001.94,0001.67
2022-12-16 20:04:00,,0823.7,4.97,0.00,21.6,21.7,00.0,30.4,23.5,04.1,0000.0,0002.77,0001.93,0001.66
2022-12-16 20:05:00,,0823.7,5.04,0.00,21.7,21.7,00.0,30.5,23.6,04.1,0000.0,0002.81,0001.94,0001.67
2022-12-16 20:06:00,,0823.6,4.96,0.00,21.7,21.1,00.0,30.5,23.5,04.1,0000.0,0002.82,0001.94,0001.68
2022-12-16 20:07:00,,0823.6,5.06,0.00,21.6,20.7,00.0,30.5,23.3,04.1,0000.0,0002.83,0001.93,0001.68
2022-12-16 20:08:00,,0823.6,4.97,0.00,21.6,20.4,00.0,30.5,23.2,04.1,0000.0,0002.84,0001.94,0001.67
2022-12-16 20:09:00,,0823.6,4.96,0.00,21.6,20.1,00.0,30.5,23.1,04.1,0000.0,0002.76,0001.90,0001.67
2022-12-16 20:10:00,,0823.6,5.03,0.00,21.5,19.9,00.0,30.5,23.0,04.1,0000.0,0003.32,0001.85,0001.65
2022-12-16 20:11:00,,0823.6,5.00,0.00,21.5,19.7,00.0,30.5,22.9,04.1,0000.0,0004.07,0001.84,0001.64
2022-12-16 20:12:00,,0823.6,5.00,0.00,21.5,20.4,00.0,30.4,23.1,04.1,0000.0,0004.94,0001.83,0001.61
2022-12-16 20:13:00,,0823.7,4.99,0.00,21.6,21.5,00.0,30.4,23.5,04.1,0000.0,0004.92,0001.81,0001.58
2022-12-16 20:14:00,,0823.7,5.01,0.00,21.7,22.2,00.0,30.4,23.7,04.0,0000.0,0004.88,0001.81,0001.56
2022-12-16 20:15:00,,0823.6,4.99,0.00,21.8,21.9,00.0,30.5,23.7,04.1,0000.0,0004.81,0001.78,0001.53
2022-12-16 20:16:00,,0823.7,4.98,0.00,21.7,21.3,00.0,30.5,23.5,04.0,0000.0,0004.77,0001.75,0001.50
2022-12-16 20:17:00,,0823.6,5.02,0.00,21.7,20.9,00.0,30.5,23.4,04.0,0000.0,0004.77,0001.73,0001.47
2022-12-16 20:18:00,,0823.6,4.99,0.00,21.7,20.5,00.0,30.5,23.3,04.1,0000.0,0004.83,0001.74,0001.44
2022-12-16 20:19:00,,0823.5,4.97,0.00,21.6,20.3,00.0,30.5,23.1,04.1,0000.0,0004.83,0001.72,0001.43
2022-12-16 20:20:00,,0823.5,5.02,0.00,21.6,20.1,00.0,30.5,23.1,04.1,0000.0,0004.84,0001.71,0001.42
2022-12-16 20:21:00,,0823.6,4.99,0.00,21.5,19.9,00.0,30.5,23.0,04.0,0000.0,0004.26,0001.69,0001.39
2022-12-16 20:22:00,,0823.7,5.02,0.00,21.5,19.9,00.0,30.5,22.9,04.0,0000.0,0003.36,0001.66,0001.37
2022-12-16 20:23:00,,0823.6,4.98,0.00,21.5,20.8,00.0,30.4,23.2,04.1,0000.0,0002.42,0001.64,0001.37
2022-12-16 20:24:00,,0823.6,5.05,0.00,21.6,21.9,00.0,30.4,23.5,04.1,0000.0,0002.41,0001.63,0001.37
2022-12-16 20:25:00,,0823.7,4.95,0.00,21.7,22.2,00.0,30.5,23.7,04.0,0000.0,0002.34,0001.60,0001.36
2022-12-16 20:26:00,,0823.7,5.04,0.00,21.8,21.6,00.0,30.5,23.6,04.1,0000.0,0002.48,0001.62,0001.36
2022-12-16 20:27:00,,0823.7,4.98,0.00,21.7,21.0,00.0,30.5,23.5,04.1,0000.0,0002.58,0001.66,0001.37
2022-12-16 20:28:00,,0823.7,4.97,0.00,21.7,20.7,00.0,30.5,23.3,04.0,0000.0,0002.55,0001.65,0001.37
2022-12-16 20:29:00,,0823.7,5.04,0.00,21.6,20.4,00.0,30.5,23.2,04.0,0000.0,0002.46,0001.61,0001.37
2022-12-16 20:30:00,,0823.7,4.97,0.00,21.6,20.2,00.0,30.5,23.1,04.0,0000.0,0002.98,0001.61,0001.36
2022-12-16 20:31:00,,0823.7,5.02,0.00,21.5,20.0,00.0,30.5,23.0,04.1,0000.0,0003.54,0001.61,0001.37
2022-12-16 20:32:00,,0823.7,4.97,0.00,21.5,19.9,00.0,30.5,23.0,04.1,0000.0,0003.50,0001.61,0001.37
2022-12-16 20:33:00,,0823.7,5.00,0.00,21.6,20.8,00.0,30.4,23.3,04.1,0000.0,0003.53,0001.61,0001.37
2022-12-16 20:34:00,,0823.7,5.00,0.00,21.7,21.8,00.0,30.4,23.6,04.0,0000.0,0003.63,0001.64,0001.38
2022-12-16 20:35:00,,0823.7,5.00,0.00,21.8,22.2,00.0,30.5,23.8,04.0,0000.0,0003.62,0001.64,0001.37
2022-12-16 20:36:00,,0823.7,5.03,0.00,21.8,21.7,00.0,30.5,23.7,04.0,0000.0,0003.67,0001.66,0001.37
2022-12-16 20:37:00,,0823.7,4.95,0.00,21.8,21.1,00.0,30.6,23.5,04.1,0000.0,0003.58,0001.65,0001.38
2022-12-16 20:38:00,,0823.7,5.04,0.00,21.7,20.8,00.0,30.6,23.4,04.1,0000.0,0003.44,0001.60,0001.37
2022-12-16 20:39:00,,0823.7,4.97,0.00,21.7,20.5,00.0,30.6,23.3,04.1,0000.0,0003.47,0001.60,0001.37
2022-12-16 20:40:00,,0823.7,5.00,0.00,21.7,20.3,00.0,30.6,23.2,04.1,0000.0,0003.50,0001.60,0001.36
2022-12-16 20:41:00,,0823.7,5.00,0.00,21.6,20.1,00.0,30.5,23.1,04.1,0000.0,0003.60,0001.62,0001.36
2022-12-16 20:42:00,,0823.7,5.00,0.00,21.6,20.0,00.0,30.5,23.1,04.1,0000.0,0003.29,0001.65,0001.35
2022-12-16 20:43:00,,0823.7,5.00,0.00,21.5,19.9,00.0,30.5,23.0,04.1,0000.0,0003.29,0001.65,0001.35
2022-12-16 20:44:00,,0823.8,4.98,0.00,21.5,20.5,00.0,30.4,23.2,04.1,0000.0,0003.26,0001.65,0001.34
2022-12-16 20:45:00,,0823.8,5.04,0.00,21.7,21.7,00.0,30.4,23.5,04.1,0000.0,0003.18,0001.63,0001.34
2022-12-16 20:46:00,,0823.7,4.95,0.00,21.8,22.4,00.0,30.5,23.8,04.1,0000.0,0003.20,0001.64,0001.33
2022-12-16 20:47:00,,0823.7,5.04,0.00,21.8,21.9,00.0,30.6,23.7,04.1,0000.0,0003.15,0001.62,0001.32
2022-12-16 20:48:00,,0823.7,4.96,0.00,21.8,21.2,00.0,30.6,23.6,04.1,0000.0,0003.13,0001.60,0001.31
2022-12-16 20:49:00,,0823.7,5.02,0.00,21.8,20.8,00.0,30.6,23.4,04.2,0000.0,0003.14,0001.60,0001.30
2022-12-16 20:50:00,,0823.7,5.00,0.00,21.7,20.5,00.0,30.6,23.3,04.2,0000.0,0003.05,0001.58,0001.29
2022-12-16 20:51:00,,0823.7,4.97,0.00,21.7,20.3,00.0,30.6,23.2,04.2,0000.0,0003.02,0001.58,0001.29
2022-12-16 20:52:00,,0823.8,5.03,0.00,21.6,20.1,00.0,30.6,23.1,04.2,0000.0,0002.28,0001.55,0001.29
2022-12-16 20:53:00,,0823.7,4.97,0.00,21.6,20.0,00.0,30.5,23.1,04.1,0000.0,0002.08,0001.51,0001.28
2022-12-16 20:54:00,,0823.7,5.04,0.00,21.5,19.9,00.0,30.5,23.0,04.1,0000.0,0002.07,0001.50,0001.26
2022-12-16 20:55:00,,0823.7,4.98,0.00,21.5,20.4,00.0,30.5,23.2,04.1,0000.0,0002.05,0001.48,0001.27
2022-12-16 20:56:00,,0823.6,5.04,0.00,21.6,21.5,00.0,30.4,23.5,04.1,0000.0,0002.06,0001.48,0001.26
2022-12-16 20:57:00,,0823.8,4.95,0.00,21.8,22.4,00.0,30.5,23.8,04.1,0000.0,0002.10,0001.50,0001.26
2022-12-16 20:58:00,,0823.8,5.04,0.00,21.9,22.1,00.0,30.5,23.8,04.1,0000.0,0002.09,0001.49,0001.25
2022-12-16 20:59:00,,0823.8,4.99,0.00,21.8,21.4,00.0,30.6,23.6,04.0,0000.0,0002.06,0001.48,0001.25
